Location: Albany
(35.0170°S, 117.8920°E)
Time: 00:47:08
(UTC+08:00)

Explorer 7 - Pass Details

Date: 24 January 2021
Orbit: 484 x 677 km, 50.3° (Epoch: 01 March)

Event Time Altitude Azimuth Distance (km) Brightness Sun altitude
Rises 16:24:36 0° 297° (WNW) 3,029 11.4 34.3°
Reaches altitude 10° 16:27:02 10° 292° (WNW) 2,115 11.0 33.8°
Maximum altitude 16:31:49 51° 216° (SW) 843 8.7 32.8°
Drops below altitude 10° 16:36:30 10° 139° (SE) 2,066 9.5 31.8°
Sets 16:38:51 0° 134° (SE) 2,952 10.2 31.3°
